Time,TemperatureF,DewpointF,PressureIn,WindDirection,WindDirectionDegrees,WindSpeedMPH,WindSpeedGustMPH,Humidity,HourlyPrecipIn,Conditions,Clouds,dailyrainin,SolarRadiationWatts/m^2,SoftwareType,DateUTC
2013-07-02 00:11:00,59.1,55.0,29.89,WNW,289,0.0,2.0,87,0.00,,,0.00,0,weatherlink.com 1.10,2013-07-02 07:11:00,
2013-07-02 00:26:00,59.4,55.0,29.89,West,276,1.0,7.0,86,0.00,,,0.00,0,weatherlink.com 1.10,2013-07-02 07:26:00,
2013-07-02 00:41:00,59.0,55.0,29.89,WSW,252,0.0,7.0,86,0.00,,,0.00,0,weatherlink.com 1.10,2013-07-02 07:41:00,
2013-07-02 00:56:00,58.9,55.0,29.88,West,280,0.0,7.0,86,0.00,,,0.00,0,weatherlink.com 1.10,2013-07-02 07:56:00,
2013-07-02 01:11:00,59.0,55.0,29.88,North,352,1.0,4.0,86,0.00,,,0.00,0,weatherlink.com 1.10,2013-07-02 08:11:00,
2013-07-02 01:26:00,58.7,55.0,29.88,WSW,256,2.0,7.0,86,0.00,,,0.00,0,weatherlink.com 1.10,2013-07-02 08:26:00,
2013-07-02 01:41:00,58.5,54.0,29.88,West,272,2.0,5.0,86,0.00,,,0.00,0,weatherlink.com 1.10,2013-07-02 08:41:00,
2013-07-02 01:56:00,58.6,55.0,29.88,West,281,4.0,4.0,87,0.00,,,0.00,0,weatherlink.com 1.10,2013-07-02 08:56:00,
2013-07-02 02:11:00,58.8,55.0,29.87,West,267,4.0,7.0,87,0.00,,,0.00,0,weatherlink.com 1.10,2013-07-02 09:11:00,
2013-07-02 02:26:00,58.7,55.0,29.86,West,259,5.0,5.0,87,0.00,,,0.00,0,weatherlink.com 1.10,2013-07-02 09:26:00,
2013-07-02 02:41:00,58.3,55.0,29.87,WNW,285,1.0,9.0,87,0.00,,,0.00,0,weatherlink.com 1.10,2013-07-02 09:41:00,
2013-07-02 02:56:00,57.9,54.0,29.87,WSW,250,0.0,7.0,88,0.00,,,0.00,0,weatherlink.com 1.10,2013-07-02 09:56:00,
2013-07-02 03:11:00,57.8,54.0,29.86,West,265,4.0,8.0,88,0.00,,,0.00,0,weatherlink.com 1.10,2013-07-02 10:11:00,
2013-07-02 03:26:00,57.5,54.0,29.86,NNW,335,3.0,10.0,89,0.00,,,0.00,0,weatherlink.com 1.10,2013-07-02 10:26:00,
2013-07-02 03:42:00,57.6,54.0,29.87,WNW,287,1.0,6.0,89,0.00,,,0.00,0,weatherlink.com 1.10,2013-07-02 10:42:00,
2013-07-02 03:57:00,57.7,55.0,29.87,West,272,3.0,6.0,90,0.00,,,0.00,0,weatherlink.com 1.10,2013-07-02 10:57:00,
2013-07-02 04:12:00,57.7,55.0,29.88,NW,321,2.0,6.0,90,0.00,,,0.00,0,weatherlink.com 1.10,2013-07-02 11:12:00,
2013-07-02 04:27:00,57.8,55.0,29.88,NW,310,7.0,7.0,90,0.00,,,0.00,0,weatherlink.com 1.10,2013-07-02 11:27:00,
2013-07-02 04:42:00,57.8,55.0,29.88,WNW,299,2.0,7.0,90,0.00,,,0.00,0,weatherlink.com 1.10,2013-07-02 11:42:00,
2013-07-02 04:57:00,58.0,55.0,29.88,WNW,292,2.0,6.0,90,0.00,,,0.00,0,weatherlink.com 1.10,2013-07-02 11:57:00,
2013-07-02 05:12:00,58.1,55.0,29.88,NW,313,0.0,4.0,90,0.00,,,0.00,0,weatherlink.com 1.10,2013-07-02 12:12:00,
2013-07-02 05:27:00,58.3,56.0,29.88,SW,228,2.0,7.0,90,0.00,,,0.00,0,weatherlink.com 1.10,2013-07-02 12:27:00,
2013-07-02 05:42:00,58.4,55.0,29.89,WNW,299,4.0,7.0,89,0.00,,,0.00,0,weatherlink.com 1.10,2013-07-02 12:42:00,
2013-07-02 05:57:00,58.3,55.0,29.89,West,278,1.0,6.0,89,0.00,,,0.00,5,weatherlink.com 1.10,2013-07-02 12:57:00,
2013-07-02 06:12:00,58.3,55.0,29.88,West,272,0.0,8.0,89,0.00,,,0.00,19,weatherlink.com 1.10,2013-07-02 13:12:00,
2013-07-02 06:27:00,58.4,55.0,29.89,West,269,3.0,7.0,89,0.00,,,0.00,33,weatherlink.com 1.10,2013-07-02 13:27:00,
2013-07-02 06:42:00,58.7,56.0,29.90,SW,218,1.0,8.0,89,0.00,,,0.00,63,weatherlink.com 1.10,2013-07-02 13:42:00,
2013-07-02 06:57:00,59.0,56.0,29.90,NW,325,1.0,5.0,89,0.00,,,0.00,95,weatherlink.com 1.10,2013-07-02 13:57:00,
2013-07-02 07:12:00,59.2,56.0,29.90,West,279,2.0,9.0,89,0.00,,,0.00,141,weatherlink.com 1.10,2013-07-02 14:12:00,
2013-07-02 07:27:00,59.4,56.0,29.91,West,271,5.0,10.0,88,0.00,,,0.00,185,weatherlink.com 1.10,2013-07-02 14:27:00,
2013-07-02 07:42:00,59.5,56.0,29.91,SW,233,2.0,11.0,88,0.00,,,0.00,223,weatherlink.com 1.10,2013-07-02 14:42:00,
2013-07-02 07:57:00,60.2,57.0,29.92,WNW,290,3.0,9.0,88,0.00,,,0.00,274,weatherlink.com 1.10,2013-07-02 14:57:00,
2013-07-02 08:12:00,61.0,57.0,29.93,West,279,6.0,6.0,87,0.00,,,0.00,329,weatherlink.com 1.10,2013-07-02 15:12:00,
2013-07-02 08:27:00,61.1,57.0,29.93,West,270,8.0,10.0,85,0.00,,,0.00,371,weatherlink.com 1.10,2013-07-02 15:27:00,
2013-07-02 08:42:00,61.1,56.0,29.93,WSW,251,3.0,8.0,84,0.00,,,0.00,404,weatherlink.com 1.10,2013-07-02 15:42:00,
2013-07-02 08:57:00,61.9,57.0,29.94,WNW,292,1.0,7.0,83,0.00,,,0.00,454,weatherlink.com 1.10,2013-07-02 15:57:00,
2013-07-02 09:12:00,62.2,56.0,29.94,North,349,6.0,10.0,81,0.00,,,0.00,489,weatherlink.com 1.10,2013-07-02 16:12:00,
2013-07-02 09:28:00,62.9,57.0,29.94,WNW,289,7.0,8.0,80,0.00,,,0.00,538,weatherlink.com 1.10,2013-07-02 16:28:00,
2013-07-02 09:43:00,63.7,57.0,29.94,West,267,4.0,10.0,79,0.00,,,0.00,580,weatherlink.com 1.10,2013-07-02 16:43:00,
2013-07-02 09:58:00,63.9,57.0,29.94,WNW,290,2.0,12.0,78,0.00,,,0.00,612,weatherlink.com 1.10,2013-07-02 16:58:00,
2013-07-02 10:13:00,64.5,57.0,29.93,WSW,255,0.0,10.0,77,0.00,,,0.00,652,weatherlink.com 1.10,2013-07-02 17:13:00,
2013-07-02 10:28:00,67.4,58.0,29.94,SSW,208,7.0,8.0,72,0.00,,,0.00,691,weatherlink.com 1.10,2013-07-02 17:28:00,
2013-07-02 10:43:00,69.2,59.0,29.93,SW,227,6.0,8.0,69,0.00,,,0.00,722,weatherlink.com 1.10,2013-07-02 17:43:00,
2013-07-02 10:58:00,70.1,59.0,29.93,SW,217,3.0,9.0,67,0.00,,,0.00,756,weatherlink.com 1.10,2013-07-02 17:58:00,
2013-07-02 11:13:00,70.8,59.0,29.93,SW,219,0.0,5.0,66,0.00,,,0.00,786,weatherlink.com 1.10,2013-07-02 18:13:00,
2013-07-02 11:28:00,74.8,60.0,29.93,NNW,336,1.0,3.0,60,0.00,,,0.00,809,weatherlink.com 1.10,2013-07-02 18:28:00,
2013-07-02 11:43:00,74.4,59.0,29.92,WSW,258,0.0,6.0,59,0.00,,,0.00,826,weatherlink.com 1.10,2013-07-02 18:43:00,
2013-07-02 11:58:00,75.4,59.0,29.92,NNW,333,1.0,6.0,58,0.00,,,0.00,842,weatherlink.com 1.10,2013-07-02 18:58:00,
2013-07-02 12:13:00,75.5,60.0,29.92,WNW,285,3.0,7.0,58,0.00,,,0.00,865,weatherlink.com 1.10,2013-07-02 19:13:00,
2013-07-02 12:28:00,74.4,59.0,29.92,WSW,249,4.0,10.0,59,0.00,,,0.00,870,weatherlink.com 1.10,2013-07-02 19:28:00,
2013-07-02 12:43:00,72.8,58.0,29.93,West,267,3.0,10.0,61,0.00,,,0.00,877,weatherlink.com 1.10,2013-07-02 19:43:00,
2013-07-02 12:58:00,73.1,59.0,29.93,WSW,248,4.0,11.0,61,0.00,,,0.00,884,weatherlink.com 1.10,2013-07-02 19:58:00,
2013-07-02 13:13:00,73.4,59.0,29.93,WNW,287,2.0,9.0,60,0.00,,,0.00,886,weatherlink.com 1.10,2013-07-02 20:13:00,
2013-07-02 13:28:00,72.7,58.0,29.93,WNW,291,9.0,11.0,61,0.00,,,0.00,879,weatherlink.com 1.10,2013-07-02 20:28:00,
2013-07-02 13:43:00,73.8,59.0,29.92,WNW,291,9.0,13.0,60,0.00,,,0.00,875,weatherlink.com 1.10,2013-07-02 20:43:00,
2013-07-02 13:58:00,73.1,59.0,29.92,West,264,5.0,10.0,61,0.00,,,0.00,879,weatherlink.com 1.10,2013-07-02 20:58:00,
2013-07-02 14:13:00,72.9,59.0,29.91,WSW,243,4.0,12.0,61,0.00,,,0.00,872,weatherlink.com 1.10,2013-07-02 21:13:00,
2013-07-02 14:28:00,73.1,59.0,29.92,SW,231,2.0,15.0,61,0.00,,,0.00,863,weatherlink.com 1.10,2013-07-02 21:28:00,
2013-07-02 14:43:00,71.1,58.0,29.92,West,263,5.0,13.0,64,0.00,,,0.00,849,weatherlink.com 1.10,2013-07-02 21:43:00,
2013-07-02 14:58:00,69.3,58.0,29.92,WSW,254,8.0,14.0,68,0.00,,,0.00,830,weatherlink.com 1.10,2013-07-02 21:58:00,
2013-07-02 15:13:00,67.8,58.0,29.93,NNW,327,6.0,15.0,70,0.00,,,0.00,810,weatherlink.com 1.10,2013-07-02 22:13:00,
2013-07-02 15:28:00,66.3,57.0,29.93,NNW,330,4.0,15.0,72,0.00,,,0.00,784,weatherlink.com 1.10,2013-07-02 22:28:00,
2013-07-02 15:43:00,66.5,57.0,29.94,NW,310,2.0,13.0,72,0.00,,,0.00,427,weatherlink.com 1.10,2013-07-02 22:43:00,
2013-07-02 15:58:00,65.6,57.0,29.93,West,276,4.0,18.0,74,0.00,,,0.00,679,weatherlink.com 1.10,2013-07-02 22:58:00,
2013-07-02 16:13:00,64.4,56.0,29.94,South,188,5.0,18.0,75,0.00,,,0.00,775,weatherlink.com 1.10,2013-07-02 23:13:00,
2013-07-02 16:29:00,63.3,56.0,29.94,West,259,12.0,17.0,78,0.00,,,0.00,795,weatherlink.com 1.10,2013-07-02 23:29:00,
2013-07-02 16:44:00,63.0,56.0,29.93,NW,317,10.0,19.0,78,0.00,,,0.00,679,weatherlink.com 1.10,2013-07-02 23:44:00,
2013-07-02 16:59:00,62.8,56.0,29.93,West,268,14.0,19.0,77,0.00,,,0.00,545,weatherlink.com 1.10,2013-07-02 23:59:00,
2013-07-02 17:14:00,61.7,56.0,29.93,SSW,206,9.0,13.0,80,0.00,,,0.00,668,weatherlink.com 1.10,2013-07-03 00:14:00,
2013-07-02 17:29:00,60.9,55.0,29.93,NNW,329,3.0,14.0,81,0.00,,,0.00,422,weatherlink.com 1.10,2013-07-03 00:29:00,
2013-07-02 17:44:00,60.3,55.0,29.93,ENE,71,2.0,12.0,83,0.00,,,0.00,353,weatherlink.com 1.10,2013-07-03 00:44:00,
2013-07-02 17:59:00,59.6,54.0,29.93,NNE,21,0.0,10.0,83,0.00,,,0.00,202,weatherlink.com 1.10,2013-07-03 00:59:00,
2013-07-02 18:14:00,59.8,55.0,29.94,NNW,337,5.0,11.0,84,0.00,,,0.00,107,weatherlink.com 1.10,2013-07-03 01:14:00,
2013-07-02 18:29:00,59.4,55.0,29.94,WSW,250,4.0,10.0,85,0.00,,,0.00,100,weatherlink.com 1.10,2013-07-03 01:29:00,
2013-07-02 18:44:00,58.8,55.0,29.93,West,277,6.0,13.0,86,0.00,,,0.00,97,weatherlink.com 1.10,2013-07-03 01:44:00,
2013-07-02 18:59:00,58.5,55.0,29.93,NW,326,3.0,14.0,88,0.00,,,0.00,65,weatherlink.com 1.10,2013-07-03 01:59:00,
2013-07-02 19:14:00,58.2,55.0,29.93,West,275,3.0,16.0,88,0.00,,,0.00,42,weatherlink.com 1.10,2013-07-03 02:14:00,
2013-07-02 19:29:00,58.4,55.0,29.94,SW,236,1.0,12.0,89,0.00,,,0.00,44,weatherlink.com 1.10,2013-07-03 02:29:00,
2013-07-02 19:44:00,58.5,55.0,29.94,WNW,289,5.0,14.0,89,0.00,,,0.00,26,weatherlink.com 1.10,2013-07-03 02:44:00,
2013-07-02 19:59:00,58.4,55.0,29.94,West,268,13.0,15.0,89,0.00,,,0.00,21,weatherlink.com 1.10,2013-07-03 02:59:00,
2013-07-02 20:14:00,58.3,56.0,29.95,WSW,247,8.0,17.0,90,0.00,,,0.00,12,weatherlink.com 1.10,2013-07-03 03:14:00,
2013-07-02 20:29:00,58.2,55.0,29.94,WSW,253,10.0,17.0,90,0.00,,,0.00,5,weatherlink.com 1.10,2013-07-03 03:29:00,
2013-07-02 21:14:00,58.1,56.0,29.95,SW,214,2.0,14.0,92,0.00,,,0.00,0,weatherlink.com 1.10,2013-07-03 04:14:00,
2013-07-02 21:29:00,58.1,56.0,29.95,West,277,4.0,13.0,92,0.00,,,0.00,0,weatherlink.com 1.10,2013-07-03 04:29:00,
2013-07-02 21:44:00,58.1,56.0,29.95,WNW,297,2.0,12.0,92,0.00,,,0.00,0,weatherlink.com 1.10,2013-07-03 04:44:00,
2013-07-02 21:59:00,58.0,56.0,29.95,WNW,303,4.0,14.0,92,0.00,,,0.00,0,weatherlink.com 1.10,2013-07-03 04:59:00,
2013-07-02 22:14:00,58.1,56.0,29.95,SW,227,9.0,12.0,92,0.00,,,0.00,0,weatherlink.com 1.10,2013-07-03 05:14:00,
2013-07-02 22:29:00,58.1,56.0,29.95,WSW,239,6.0,12.0,92,0.00,,,0.00,0,weatherlink.com 1.10,2013-07-03 05:29:00,
2013-07-02 22:44:00,58.0,56.0,29.96,West,278,5.0,10.0,92,0.00,,,0.00,0,weatherlink.com 1.10,2013-07-03 05:44:00,
2013-07-02 22:59:00,58.1,56.0,29.96,West,281,8.0,10.0,92,0.00,,,0.00,0,weatherlink.com 1.10,2013-07-03 05:59:00,
2013-07-02 23:14:00,58.1,56.0,29.96,SSW,208,4.0,9.0,92,0.00,,,0.00,0,weatherlink.com 1.10,2013-07-03 06:14:00,
2013-07-02 23:29:00,58.0,56.0,29.96,West,279,7.0,11.0,92,0.00,,,0.00,0,weatherlink.com 1.10,2013-07-03 06:29:00,
2013-07-02 23:44:00,58.0,56.0,29.96,SSW,200,1.0,8.0,92,0.00,,,0.00,0,weatherlink.com 1.10,2013-07-03 06:44:00,
2013-07-02 23:59:00,58.1,56.0,29.96,West,271,6.0,8.0,92,0.00,,,0.00,0,weatherlink.com 1.10,2013-07-03 06:59:00,